Back to catalog

DELTA 1 DEB

AliveSSO
NORAD 21460·DEBRIS·🇺🇸 United States

Launched Jun 12, 1975 from Vandenberg Space Force Base

Loading…

Next Passes (next 24 hours)

TLE

FreshSource: Space-Track

Epoch: Sep 14, 2026, 05:37 UTC

1 21460U 75052EU  26257.23455705  .00000054  00000-0  20547-3 0  9995
2 21460  99.7562 170.9649 0080879 197.7361 326.5427 13.28567064713591

Track DELTA 1 DEB in real time with AllMySat

Download on the App Store